TimeCDT,TemperatureF,Dew PointF,Humidity,Sea Level PressureIn,VisibilityMPH,Wind Direction,Wind SpeedMPH,Gust SpeedMPH,PrecipitationIn,Events,Conditions,WindDirDegrees,DateUTC
12:11 AM,41.0,17.6,39,29.97,10.0,SSW,4.6,-,N/A,,Clear,210,2012-10-08 05:11:00
12:31 AM,41.0,17.6,39,29.97,10.0,SSW,4.6,-,N/A,,Clear,210,2012-10-08 05:31:00
12:52 AM,41.0,17.6,39,29.97,10.0,SSW,5.8,-,N/A,,Clear,200,2012-10-08 05:52:00
1:11 AM,41.0,19.4,42,29.96,10.0,SW,6.9,-,N/A,,Clear,220,2012-10-08 06:11:00
1:31 AM,41.0,19.4,42,29.96,10.0,SSW,8.1,-,N/A,,Clear,210,2012-10-08 06:31:00
1:51 AM,39.2,19.4,45,29.95,10.0,SSW,6.9,-,N/A,,Clear,210,2012-10-08 06:51:00
2:11 AM,39.2,19.4,45,29.95,10.0,SSW,6.9,-,N/A,,Clear,210,2012-10-08 07:11:00
2:32 AM,39.2,19.4,45,29.94,10.0,SSW,5.8,18.4,N/A,,Clear,210,2012-10-08 07:32:00
2:51 AM,39.2,19.4,45,29.93,10.0,SSW,10.4,16.1,N/A,,Clear,210,2012-10-08 07:51:00
3:11 AM,39.2,19.4,45,29.93,10.0,SW,9.2,-,N/A,,Clear,220,2012-10-08 08:11:00
3:32 AM,39.2,19.4,45,29.92,10.0,SSW,9.2,-,N/A,,Clear,210,2012-10-08 08:32:00
3:51 AM,39.2,19.4,45,29.91,10.0,SSW,9.2,18.4,N/A,,Clear,200,2012-10-08 08:51:00
4:11 AM,39.2,21.2,49,29.91,10.0,SSW,6.9,-,N/A,,Clear,210,2012-10-08 09:11:00
4:32 AM,39.2,21.2,49,29.90,10.0,SSW,8.1,-,N/A,,Clear,210,2012-10-08 09:32:00
4:51 AM,39.2,21.2,49,29.90,10.0,SSW,10.4,-,N/A,,Clear,210,2012-10-08 09:51:00
5:11 AM,39.2,23.0,52,29.89,10.0,SSW,8.1,-,N/A,,Clear,210,2012-10-08 10:11:00
5:32 AM,39.2,23.0,52,29.89,10.0,SSW,9.2,16.1,N/A,,Clear,210,2012-10-08 10:32:00
5:51 AM,41.0,23.0,49,29.89,10.0,SSW,9.2,-,N/A,,Mostly Cloudy,210,2012-10-08 10:51:00
6:11 AM,39.2,23.0,52,29.89,10.0,SSW,5.8,-,N/A,,Mostly Cloudy,200,2012-10-08 11:11:00
6:32 AM,39.2,24.8,56,29.89,10.0,SSW,4.6,-,N/A,,Scattered Clouds,210,2012-10-08 11:32:00
6:51 AM,37.4,24.8,60,29.89,10.0,Calm,Calm,-,N/A,,Clear,0,2012-10-08 11:51:00
7:11 AM,37.4,24.8,60,29.88,10.0,SE,3.5,-,N/A,,Clear,140,2012-10-08 12:11:00
7:32 AM,39.2,26.6,61,29.89,10.0,SSW,6.9,-,N/A,,Clear,210,2012-10-08 12:32:00
7:52 AM,39.2,26.6,61,29.89,10.0,Calm,Calm,-,N/A,,Clear,0,2012-10-08 12:52:00
8:11 AM,39.2,26.6,61,29.88,10.0,Calm,Calm,-,N/A,,Clear,0,2012-10-08 13:11:00
8:32 AM,41.0,26.6,57,29.88,10.0,Calm,Calm,-,N/A,,Clear,0,2012-10-08 13:32:00
8:52 AM,41.0,28.4,61,29.88,10.0,SW,3.5,-,N/A,,Mostly Cloudy,230,2012-10-08 13:52:00
9:11 AM,42.8,28.4,57,29.87,10.0,SSE,3.5,-,N/A,,Overcast,160,2012-10-08 14:11:00
9:32 AM,44.6,30.2,57,29.88,10.0,SW,6.9,-,N/A,,Overcast,230,2012-10-08 14:32:00
9:52 AM,44.6,30.2,57,29.88,10.0,SSW,9.2,-,N/A,,Overcast,200,2012-10-08 14:52:00
10:11 AM,46.4,32.0,57,29.86,10.0,SW,6.9,-,N/A,,Overcast,230,2012-10-08 15:11:00
10:32 AM,46.4,30.2,53,29.86,10.0,South,4.6,-,N/A,,Mostly Cloudy,190,2012-10-08 15:32:00
10:51 AM,46.4,30.2,53,29.86,10.0,SSW,9.2,-,N/A,,Mostly Cloudy,200,2012-10-08 15:51:00
11:11 AM,46.4,30.2,53,29.85,10.0,South,8.1,-,N/A,,Mostly Cloudy,190,2012-10-08 16:11:00
11:31 AM,46.4,30.2,53,29.85,10.0,SSW,8.1,17.3,N/A,,Overcast,210,2012-10-08 16:31:00
11:51 AM,50.0,32.0,50,29.83,10.0,South,6.9,-,N/A,,Light Drizzle,170,2012-10-08 16:51:00
12:12 PM,51.8,30.2,44,29.82,10.0,South,4.6,-,N/A,,Overcast,190,2012-10-08 17:12:00
12:52 PM,53.6,30.2,41,29.80,10.0,South,8.1,16.1,N/A,,Overcast,190,2012-10-08 17:52:00
1:11 PM,53.6,30.2,41,29.79,10.0,South,9.2,19.6,N/A,,Overcast,190,2012-10-08 18:11:00
1:31 PM,53.6,30.2,41,29.77,10.0,South,9.2,20.7,N/A,,Overcast,190,2012-10-08 18:31:00
1:52 PM,57.2,30.2,36,29.76,10.0,South,11.5,25.3,N/A,,Overcast,170,2012-10-08 18:52:00
2:11 PM,59.0,28.4,31,29.74,10.0,SSW,11.5,24.2,N/A,,Mostly Cloudy,200,2012-10-08 19:11:00
2:31 PM,59.0,28.4,31,29.73,10.0,SSW,8.1,25.3,N/A,,Overcast,200,2012-10-08 19:31:00
2:52 PM,62.6,30.2,30,29.72,10.0,SSW,11.5,20.7,N/A,,Overcast,200,2012-10-08 19:52:00
3:11 PM,60.8,28.4,29,29.71,10.0,South,10.4,29.9,N/A,,Overcast,190,2012-10-08 20:11:00
3:31 PM,60.8,28.4,29,29.70,10.0,SSW,9.2,17.3,N/A,,Mostly Cloudy,200,2012-10-08 20:31:00
3:52 PM,62.6,28.4,27,29.69,10.0,SW,16.1,25.3,N/A,,Scattered Clouds,220,2012-10-08 20:52:00
4:11 PM,60.8,26.6,27,29.69,10.0,SSW,15.0,26.5,N/A,,Clear,210,2012-10-08 21:11:00
4:32 PM,60.8,26.6,27,29.70,10.0,SW,11.5,24.2,N/A,,Scattered Clouds,220,2012-10-08 21:32:00
4:52 PM,62.6,28.4,27,29.70,10.0,SSW,10.4,21.9,N/A,,Mostly Cloudy,210,2012-10-08 21:52:00
5:11 PM,62.6,26.6,26,29.69,10.0,SSW,9.2,18.4,N/A,,Scattered Clouds,210,2012-10-08 22:11:00
5:32 PM,62.6,26.6,26,29.68,10.0,SSW,11.5,20.7,N/A,,Mostly Cloudy,210,2012-10-08 22:32:00
5:51 PM,62.6,26.6,26,29.69,10.0,SSW,15.0,20.7,N/A,,Mostly Cloudy,210,2012-10-08 22:51:00
6:11 PM,60.8,28.4,29,29.69,10.0,SSW,11.5,23.0,N/A,,Mostly Cloudy,210,2012-10-08 23:11:00
6:31 PM,60.8,28.4,29,29.69,10.0,SSW,13.8,20.7,N/A,,Overcast,210,2012-10-08 23:31:00
6:51 PM,60.8,28.4,29,29.69,10.0,SSW,9.2,20.7,N/A,,Overcast,200,2012-10-08 23:51:00
7:12 PM,60.8,28.4,29,29.69,10.0,SSW,11.5,17.3,N/A,,Scattered Clouds,210,2012-10-09 00:12:00
7:31 PM,60.8,28.4,29,29.70,10.0,SSW,8.1,17.3,N/A,,Mostly Cloudy,200,2012-10-09 00:31:00
7:51 PM,60.8,28.4,29,29.70,10.0,SSW,12.7,26.5,N/A,,Overcast,210,2012-10-09 00:51:00
8:12 PM,59.0,28.4,31,29.71,10.0,SSW,13.8,18.4,N/A,,Overcast,210,2012-10-09 01:12:00
8:31 PM,59.0,28.4,31,29.71,10.0,SSW,9.2,-,N/A,,Overcast,210,2012-10-09 01:31:00
8:51 PM,59.0,30.2,34,29.71,10.0,SSW,8.1,19.6,N/A,,Overcast,200,2012-10-09 01:51:00
9:12 PM,59.0,28.4,31,29.71,10.0,SW,6.9,-,N/A,,Mostly Cloudy,220,2012-10-09 02:12:00
9:31 PM,59.0,30.2,34,29.72,10.0,SSW,11.5,17.3,N/A,,Mostly Cloudy,210,2012-10-09 02:31:00
9:51 PM,59.0,30.2,34,29.72,10.0,SSW,10.4,17.3,N/A,,Overcast,210,2012-10-09 02:51:00
10:12 PM,59.0,30.2,34,29.73,10.0,SW,12.7,18.4,N/A,,Mostly Cloudy,220,2012-10-09 03:12:00
10:51 PM,59.0,32.0,36,29.75,10.0,WSW,12.7,23.0,N/A,Rain,Rain,250,2012-10-09 03:51:00
11:12 PM,57.2,32.0,38,29.76,10.0,WSW,10.4,18.4,N/A,,Light Drizzle,250,2012-10-09 04:12:00
11:31 PM,53.6,35.6,51,29.77,10.0,West,8.1,16.1,N/A,Rain,Light Rain,260,2012-10-09 04:31:00